This is the latest recevied weather packets stored in our database for station/object PD2BVG. If no packets are shown the sender has not sent any weather packets the latest 1 day(s).
| Time | Temp. | Humidity | Pressure | Rain* | Wind** | Luminosity | Snow |
|---|---|---|---|---|---|---|---|
| 1777985436 | 14.44° C | 72% | 1011.3 hPa | 0 mm | 4.02 m/s, 347° | 408 W/m² | - |
| 1777985372 | 14.44° C | 71% | 1011.4 hPa | 0 mm | 4.02 m/s, 319° | 375 W/m² | - |
| 1777985312 | 14.44° C | 73% | 1011.3 hPa | 0 mm | 4.02 m/s, 0° | 387 W/m² | - |
| 1777985253 | 14.44° C | 72% | 1011.3 hPa | 0 mm | 4.02 m/s, 0° | 382 W/m² | - |
| 1777985190 | 14.44° C | 72% | 1011.4 hPa | 0 mm | 4.47 m/s, 320° | 369 W/m² | - |
| 1777985129 | 14.44° C | 72% | 1011.3 hPa | 0 mm | 4.47 m/s, 0° | 415 W/m² | - |
| 1777985070 | 14.44° C | 73% | 1011.3 hPa | 0 mm | 4.02 m/s, 347° | 637 W/m² | - |
| 1777985009 | 14.44° C | 72% | 1011.3 hPa | 0 mm | 4.02 m/s, 21° | 682 W/m² | - |
| 1777984950 | 14.44° C | 72% | 1011.3 hPa | 0 mm | 4.47 m/s, 333° | 628 W/m² | - |
| 1777984889 | 14.44° C | 72% | 1011.3 hPa | 0 mm | 4.47 m/s, 351° | 616 W/m² | - |
| 1777984830 | 14.44° C | 72% | 1011.3 hPa | 0 mm | 4.92 m/s, 357° | 617 W/m² | - |
| 1777984769 | 14.44° C | 72% | 1011.2 hPa | 0 mm | 4.47 m/s, 0° | 776 W/m² | - |
| 1777984710 | 14.44° C | 73% | 1011.3 hPa | 0 mm | 3.13 m/s, 338° | 739 W/m² | - |
| 1777984650 | 14.44° C | 72% | 1011.3 hPa | 0 mm | 4.02 m/s, 323° | 707 W/m² | - |
| 1777984590 | 14.44° C | 73% | 1011.3 hPa | 0 mm | 4.92 m/s, 340° | 642 W/m² | - |
| 1777984532 | 14.44° C | 73% | 1011.4 hPa | 0 mm | 4.02 m/s, 338° | 635 W/m² | - |
| 1777984470 | 14.44° C | 73% | 1011.3 hPa | 0 mm | 4.02 m/s, 358° | 695 W/m² | - |
| 1777984409 | 14.44° C | 73% | 1011.4 hPa | 0 mm | 4.92 m/s, 347° | 695 W/m² | - |
| 1777984348 | 14.44° C | 72% | 1011.3 hPa | 0 mm | 4.47 m/s, 310° | 631 W/m² | - |
| 1777984289 | 14.44° C | 74% | 1011.3 hPa | 0 mm | 4.47 m/s, 340° | 619 W/m² | - |
| 1777984229 | 14.44° C | 74% | 1011.3 hPa | 0 mm | 4.02 m/s, 0° | 635 W/m² | - |
| 1777984170 | 14.44° C | 74% | 1011.3 hPa | 0 mm | 3.58 m/s, 341° | 635 W/m² | - |
| 1777984109 | 14.44° C | 75% | 1011.3 hPa | 0 mm | 3.13 m/s, 312° | 631 W/m² | - |
| 1777984050 | 13.89° C | 74% | 1011.2 hPa | 0 mm | 3.58 m/s, 309° | 598 W/m² | - |
| 1777983990 | 13.89° C | 74% | 1011.4 hPa | 0 mm | 4.47 m/s, 0° | 584 W/m² | - |
* Rain latest hour (hover to see other rain measurements)
** Current wind speed in m/s (hover to see current wind gust speed)